GORIZONT 25 1 21922U 92017A 12036.39737992 -.00000323 00000-0 10000-3 0 5883 2 21922 013.2386 032.1408 0029632 331.7294 028.1874 00.99849153 72568 GORIZONT 26 1 22041U 92043A 12033.34767215 -.00000309 +00000-0 +10000-3 0 02104 2 22041 013.1400 033.6074 0029086 127.2678 233.0510 00.99245304071403 GORIZONT 27 1 22245U 92082A 12037.20702852 .00000050 00000-0 10000-3 0 7419 2 22245 013.0620 034.3166 0012716 262.9366 096.9920 01.00208185 74600 GORIZONT 28 1 22880U 93069A 12035.19956472 +.00000010 +00000-0 +10000-3 0 05880 2 22880 012.6719 037.5702 0034731 023.2979 336.9266 00.99655818066853 GORIZONT 29 1 22907U 93072A 12036.63512489 .00000133 00000-0 10000-3 0 9532 2 22907 012.6417 037.5182 0011439 240.1273 119.8450 01.00132645 66671 GORIZONT 30 1 23108U 94030A 12033.45279666 -.00000343 +00000-0 +10000-3 0 07638 2 23108 012.5107 038.6723 0001452 008.2309 351.8390 01.00376322064862 GORIZONT 31 1 23775U 96005A 12035.36212923 -.00000327 00000-0 10000-3 0 2241 2 23775 011.5890 044.1623 0019512 085.2546 275.0444 00.99898741 58642 GORIZONT 32 1 23880U 96034A 12034.81700020 +.00000137 +00000-0 +10000-3 0 09389 2 23880 011.4555 045.0378 0008591 247.0613 176.0212 01.00156745057489 GORIZONT 33 1 26372U 00029A 12035.26336578 +.00000072 +00000-0 +10000-3 0 09131 2 26372 008.8509 053.8780 0003681 335.4030 024.6668 01.00239585042819